Regional Weather Roundup
Issued by NWS Little Rock, AR

Home | Current Version | Previous Version | Text Only | Print | Product List | Glossary Off
Versions: 1 2 3 4 5 6 7 8 9 10 11 12 13 14 15 16 17 18 19 20 21 22 23 24 25 26 27 28 29 30 31 32 33 34 35 36 37 38 39 40 41 42 43 44 45

000
ASUS44 KLZK 211500
RWRLZK
ARKANSAS STATE WEATHER ROUNDUP
NATIONAL WEATHER SERVICE LITTLE ROCK AR
ISSUED BY NATIONAL WEATHER SERVICE MEMPHIS TN
1000 AM CDT THU SEP 21 2017

NOTE: "FAIR" INDICATES FEW OR NO CLOUDS BELOW 12,000 FEET WITH NO
SIGNIFICANT WEATHER AND/OR OBSTRUCTIONS TO VISIBILITY.

ARZ001-003-010-029-211600-
NORTHWEST ARKANSAS

CITY           SKY/WX    TMP DP  RH WIND       PRES   REMARKS
FORT SMITH     CLOUDY    81  73  76 E8        30.00R
HARRISON       SUNNY     80  71  74 SE9       30.06R
BENTONVILLE    SUNNY     80  71  74 S10       30.04R
SILOAM SPGS    SUNNY     81  72  74 S13       30.02R
HIGHFILL       SUNNY     81  72  74 S14       30.02R
SPRINGDALE     SUNNY     81  72  74 S9        30.04R
$$

ARZ004-005-016-211600-
NORTH CENTRAL ARKANSAS

CITY           SKY/WX    TMP DP  RH WIND       PRES   REMARKS
BATESVILLE     SUNNY    N/A N/A N/A S6        30.06S
FLIPPIN        SUNNY     81  72  74 VRB6      30.05R
MTN HOME       SUNNY     81  72  74 S10       30.05R
$$

ARZ040-041-211600-
WEST CENTRAL ARKANSAS

CITY           SKY/WX    TMP DP  RH WIND       PRES   REMARKS
MOUNT IDA      CLOUDY    77  72  84 VRB5      30.04R
$$

ARZ017-025-026-028-211600-
NORTHEAST ARKANSAS

CITY           SKY/WX    TMP DP  RH WIND       PRES   REMARKS
JONESBORO      MOSUNNY   82  76  81 S5        30.06R
NEWPORT        SUNNY     82  74  76 S6        30.06S
BLYTHEVILLE    SUNNY     83  76  79 SW5       30.07R HX  91
NW BLYTHEVILLE MOSUNNY   86  73  66 SW3       30.07R HX  93
$$

ARZ022-033-042-044-211600-
CENTRAL ARKANSAS

CITY           SKY/WX    TMP DP  RH WIND       PRES   REMARKS
LITTLE ROCK    PTSUNNY   79  75  87 SW6       30.05R
JACKSONVILLE   MOSUNNY   82  74  77 S3        30.05R
SEARCY         SUNNY     81  75  82 VRB3      30.07S
HOT SPRINGS    CLOUDY    77  74  90 VRB3      30.06R
RUSSELLVILLE   MOSUNNY   81  73  76 MISG      30.03R
$$

ARZ036-211600-
EAST ARKANSAS

CITY           SKY/WX    TMP DP  RH WIND       PRES   REMARKS
WEST MEMPHIS   SUNNY     82  72  71 S7        30.06R
$$

ARZ050-070-073-211600-
SOUTHWEST ARKANSAS

CITY           SKY/WX    TMP DP  RH WIND       PRES   REMARKS
TEXARKANA      CLOUDY    79  74  84 S8        30.03R
EL DORADO      CLOUDY    78  74  87 S7        30.05S
DEQUEEN        CLOUDY    78  76  93 SE3       30.01R
$$

ARZ056-057-069-211600-
SOUTHEAST ARKANSAS

CITY           SKY/WX    TMP DP  RH WIND       PRES   REMARKS
PINE BLUFF     SUNNY     81  74  79 SW5       30.06R
STUTTGART      SUNNY     81  74  79 SW3       30.07R
MONTICELLO     MOSUNNY   82  74  76 CALM      30.06R
$$





USA.gov is the U.S. government's official web portal to all federal, state and local government web resources and services.